Miscellaneous Local Product
Issued by NWS Hastings, NE

Home | Current Version | Previous Version | Graphics & Text | Print | Product List | Glossary On
Versions: 1 2 3 4 5 6 7 8 9 10 11 12 13 14 15 16 17 18 19 20 21 22 23 24 25 26 27 28 29 30 31 32 33 34 35 36 37 38 39 40 41 42 43 44 45 46 47 48 49 50
328
AXUS43 KGID 210202
MISGRI

GID CWA HOURLY WEATHER ROUNDUP
NATIONAL WEATHER SERVICE HASTINGS NE
900 PM CDT FRI OCT 20 2017

NOTE: "FAIR" INDICATES FEW OR NO CLOUDS BELOW 12,000 FEET WITH NO
SIGNIFICANT WEATHER AND/OR OBSTRUCTIONS TO VISIBILITY.

...SOUTH CENTRAL NEBRASKA...

CITY           SKY/WX    TMP DP  RH WIND       PRES   REMARKS
GRAND ISLAND   MOCLDY    69  59  70 S21G31    29.61R
KEARNEY        PTCLDY    69  57  65 S23G30    29.58S
HASTINGS       CLOUDY    70  56  61 S16G32    29.63R
ORD            PTCLDY    69  57  65 S21G35    29.54S
YORK           PTCLDY    70  57  64 S24G32    29.64F
AURORA         CLOUDY    69  56  63 S21G32    29.63R
LEXINGTON      PTCLDY    70  55  57 S26G33    29.55S
HOLDREGE       CLEAR     69  57  67 S20G26    29.58F
HEBRON         CLOUDY    72  57  58 S22G30    29.68F

...NEBRASKA PANHANDLE...

CITY           SKY/WX    TMP DP  RH WIND       PRES   REMARKS
CHADRON        CLEAR     68  43  40 S18       29.39R
ALLIANCE       CLEAR     57  45  64 S13       29.45F
SCOTTSBLUFF    CLOUDY    57  40  52 SE8       29.44S
SIDNEY         CLEAR     53  38  56 S7        29.49F

...WESTERN AND NORTH CENTRAL NEBRASKA...

CITY           SKY/WX    TMP DP  RH WIND       PRES   REMARKS
VALENTINE      CLEAR     61  49  64 S6        29.45F
AINSWORTH      CLEAR     67  54  63 S15       29.48F
ONEILL         CLEAR     69  58  67 S16G26    29.54R
BROKEN BOW     CLEAR     69  55  60 S20G26    29.54S
IMPERIAL       CLEAR     65  50  58 SE12      29.48F
NORTH PLATTE   CLEAR     69  52  54 SE15      29.50S
MCCOOK         CLEAR     70  55  59 S23G36    29.51F

...EASTERN NEBRASKA...

CITY           SKY/WX    TMP DP  RH WIND       PRES   REMARKS
NORFOLK        PTCLDY    70  57  63 S24G35    29.57F
SO SIOUX CITY  CLOUDY    70  59  68 S17G35    29.63F
TEKAMAH        CLOUDY    71  57  61 S16G28    29.67S
COLUMBUS       PTCLDY    71  57  61 S18       29.64S
ALBION         MOCLDY    71  58  64 S23G35    29.60R
OMAHA EPPLEY   PTCLDY    71  57  61 S25G33    29.72R
OFFUTT AFB     MOCLDY    69  57  65 SE21G30   29.73R
MILLARD        MOCLDY    72  59  64 S20G26    29.72R
LINCOLN        MOCLDY    70  57  63 S26G35    29.69S
NEBRASKA CITY  CLEAR     68  59  73 S18G28    29.76R
BEATRICE       CLOUDY    69  58  67 S15G28    29.73R
FALLS CITY     CLEAR     67  57  70 S16G25    29.78S

...NORTHERN KANSAS...

CITY           SKY/WX    TMP DP  RH WIND       PRES   REMARKS
GOODLAND       CLEAR     60  46  59 S10       29.52F
HILL CITY      CLEAR     70  58  65 S22G41    29.58F
NORTON         CLEAR     68  50  52 SE16G28   29.56S
PHILLIPSBURG   CLEAR     72  55  56 SE21G29   29.60S
SMITH CENTER   CLEAR     68  57  68 SE22G29   29.63S
HAYS           CLEAR     69  59  70 S25G36    29.62F
RUSSELL        CLEAR     70  61  73 S30G41    29.63F
CONCORDIA      PTCLDY    70  58  65 S18G26    29.69S
SALINA         CLEAR     73  58  59 S23G33    29.70F
TOPEKA         CLEAR     69  58  67 S17G28    29.81F



USA.gov is the U.S. government's official web portal to all federal, state and local government web resources and services.